Location: Saint-Palais-sur-Mer
(45.6429°N, 1.0859°W)
Time: 20:12:19
(UTC+02:00)

DOVE 4 - Visible Passes

Search period start: 22 April 2024 00:00
Search period end: 02 May 2024 00:00
Orbit: 580 x 782 km, 97.7° (Epoch: 22 April)

Date Brightness Start Highest point End Pass type
(mag) Time Alt. Az. Time Alt. Az. Time Alt. Az.
22 Apr ? 01:00:50 10° NNW 01:03:59 20° WNW 01:04:32 20° WNW visible
22 Apr ? 22:24:00 10° ENE 22:24:21 10° ENE 22:24:21 10° ENE visible
22 Apr ? 23:58:44 10° N 00:02:48 75° NNW 00:02:48 75° NNW visible
23 Apr ? 22:58:02 10° NE 23:01:04 25° E 23:01:04 25° E visible
24 Apr ? 00:35:10 10° N 00:39:06 34° WNW 00:39:30 33° W visible
24 Apr ? 23:33:38 10° NNE 23:37:45 58° E 23:37:45 58° E visible
25 Apr ? 01:12:12 10° NNW 01:14:57 17° WNW 01:16:12 15° W visible
25 Apr ? 22:33:48 10° NE 22:35:59 15° E 22:35:59 15° E visible
26 Apr ? 00:09:44 10° N 00:14:03 60° WNW 00:14:25 58° W visible
26 Apr ? 23:08:42 10° NNE 23:12:39 33° E 23:12:39 33° E visible
27 Apr ? 00:46:17 10° N 00:50:00 27° WNW 00:51:06 25° W visible
27 Apr ? 23:44:28 10° NNE 23:48:55 77° ESE 23:49:18 71° SSE visible
28 Apr ? 01:23:36 10° NNW 01:25:45 13° WNW 01:27:44 11° W visible
28 Apr ? 22:44:04 10° NE 22:47:23 20° E 22:47:29 20° E visible
29 Apr ? 00:20:40 10° N 00:24:56 47° WNW 00:25:56 40° WSW visible
29 Apr ? 23:19:20 10° NNE 23:23:39 44° E 23:24:07 42° ESE visible
30 Apr ? 00:57:19 10° NNW 01:00:48 22° WNW 01:02:33 18° W visible
30 Apr ? 22:20:20 10° ENE 22:21:54 12° E 22:22:17 11° E visible
30 Apr ? 23:55:13 10° N 23:59:45 82° WNW 00:00:43 56° SSW visible
01 May ? 01:35:14 10° NW 01:36:27 11° WNW 01:37:40 10° WNW visible
01 May ? 22:54:25 10° NE 22:58:16 26° E 22:58:52 25° ESE visible
